TimeEST,TemperatureF,Dew PointF,Humidity,Sea Level PressureIn,VisibilityMPH,Wind Direction,Wind SpeedMPH,Gust SpeedMPH,PrecipitationIn,Events,Conditions,WindDirDegrees,DateUTC
12:53 AM,44.1,35.1,71,30.07,10.0,WNW,6.9,-,N/A,,Clear,300,2013-02-20 05:53:00
1:53 AM,42.1,30.9,65,30.08,10.0,NW,5.8,-,N/A,,Clear,310,2013-02-20 06:53:00
2:53 AM,39.9,28.9,65,30.09,10.0,WNW,5.8,-,N/A,,Clear,290,2013-02-20 07:53:00
3:53 AM,39.9,27.0,60,30.09,10.0,WNW,6.9,-,N/A,,Clear,300,2013-02-20 08:53:00
4:53 AM,37.0,26.1,65,30.10,10.0,WNW,5.8,-,N/A,,Clear,290,2013-02-20 09:53:00
5:53 AM,37.0,25.0,62,30.11,10.0,WNW,3.5,-,N/A,,Clear,300,2013-02-20 10:53:00
6:53 AM,33.1,26.1,75,30.12,10.0,NNW,3.5,-,N/A,,Clear,340,2013-02-20 11:53:00
7:53 AM,34.0,28.9,82,30.16,10.0,Calm,Calm,-,N/A,,Clear,0,2013-02-20 12:53:00
8:53 AM,39.9,27.0,60,30.17,10.0,WNW,3.5,-,N/A,,Clear,300,2013-02-20 13:53:00
9:53 AM,45.0,24.1,44,30.16,10.0,NNW,3.5,-,N/A,,Clear,340,2013-02-20 14:53:00
11:53 AM,51.1,21.0,31,30.14,10.0,Calm,Calm,-,N/A,,Clear,0,2013-02-20 16:53:00
12:53 PM,55.0,21.0,27,30.10,10.0,SW,3.5,-,N/A,,Clear,230,2013-02-20 17:53:00
1:53 PM,55.9,19.0,24,30.06,10.0,SW,6.9,-,N/A,,Clear,220,2013-02-20 18:53:00
2:53 PM,57.9,21.9,25,30.07,10.0,SW,11.5,16.1,N/A,,Clear,230,2013-02-20 19:53:00
3:53 PM,57.9,23.0,26,30.06,10.0,SW,3.5,-,N/A,,Clear,230,2013-02-20 20:53:00
4:53 PM,57.9,26.1,30,30.08,10.0,WSW,8.1,-,N/A,,Clear,240,2013-02-20 21:53:00
5:53 PM,55.9,28.0,34,30.10,10.0,WSW,6.9,-,N/A,,Clear,240,2013-02-20 22:53:00
6:53 PM,54.0,28.9,38,30.11,10.0,West,5.8,-,N/A,,Partly Cloudy,260,2013-02-20 23:53:00
7:53 PM,52.0,30.9,45,30.08,10.0,Calm,Calm,-,N/A,,Mostly Cloudy,0,2013-02-21 00:53:00
8:53 PM,48.9,33.1,54,30.09,10.0,Calm,Calm,-,N/A,,Clear,0,2013-02-21 01:53:00
9:53 PM,44.1,34.0,68,30.10,10.0,Calm,Calm,-,N/A,,Clear,0,2013-02-21 02:53:00
10:53 PM,42.1,34.0,73,30.11,10.0,Calm,Calm,-,N/A,,Clear,0,2013-02-21 03:53:00
11:53 PM,39.9,34.0,79,30.11,10.0,Calm,Calm,-,N/A,,Clear,0,2013-02-21 04:53:00